User: anonymous   Login
Location: Unspecified
(0.0000°N, 0.0000°E)
Time: 18:54:23
(UTC+00:00)
Language:

COSMOS 2498 - Orbit

View from above orbital plane
View from above orbital plane
View from above satellite
View from above satellite

Ground track
Ground track

The orbit data is extracted from the following two-line orbital elements,

1 39763U 14028C   19340.80338515 +.00000007 +00000-0 -20312-4 0  9993
2 39763 082.4446 162.3683 0020196 225.8210 134.1210 12.42882902251384
Epoch (UTC): 06 December 2019 19:16:52
Eccentricity: 0.0020196
inclination: 82.4446°
perigee height: 1478 km
apogee height: 1510 km
right ascension of ascending node: 162.3683°
argument of perigee: 225.8210°
revolutions per day: 12.42882902
mean anomaly at epoch: 134.1210°
orbit number at epoch: 25138

The dashed part of the orbit path shows where the satellite is in the earth's shadow,  

DLR